Regional Weather Roundup
Issued by NWS

Home | Current Version | Previous Version | Graphics & Text | Print | Product List | Glossary On
Versions: 1 2 3 4 5 6 7 8 9 10 11 12 13 14 15 16 17 18 19 20 21 22 23 24 25 26 27 28 29 30 31 32 33 34 35 36 37 38 39 40 41 42 43 44 45 46 47 48 49 50
000
ASUS43 KLSX 231457
RWRMO

WEATHER SUMMARY FOR MISSOURI
NATIONAL WEATHER SERVICE SPRINGFIELD MO
1000 AM CDT SAT JUL 23 2016

NOTE: "FAIR" INDICATES FEW OR NO CLOUDS BELOW 12,000 FEET WITH NO
       SIGNIFICANT WEATHER AND/OR OBSTRUCTIONS TO VISIBILITY.
       CURRENT SKY AND/OR WEATHER CONDITIONS ARE NOT AVAILABLE FOR
       CHILLICOTHE AND FARMINGTON.

MOZ001>031-035>038-043-044-053-054-231600-
...NORTHERN AND WESTERN MISSOURI...

CITY           SKY/WX    TMP DP  RH WIND       PRES   REMARKS
KANSAS CTY INT CLOUDY    87  74  64 S14       29.95F HX  95
LEE`S SUMMIT   CLOUDY    88  73  61 S9        29.97F HX  95
ST JOSEPH      CLOUDY    86  74  67 SW15G24   29.91F HX  94

$$
MOZ066>068-077>081-088>096-101>105-231600-
...SOUTHWEST MISSOURI...

CITY           SKY/WX    TMP DP  RH WIND       PRES   REMARKS
SPRINGFIELD    SUNNY     89  74  60 SW7       30.02F HX  98
JOPLIN         SUNNY     89  74  60 SW10      30.01S HX  98
BRANSON        SUNNY     88  75  66 CALM      30.04F HX  97

$$
MOZ032>034-039>042-045>050-055>058-069>072-231600-
...CENTRAL MISSOURI...

CITY           SKY/WX    TMP DP  RH WIND       PRES   REMARKS
COLUMBIA       NOT AVBL
JEFFERSON CITY SUNNY     88  76  67 S3        29.97F HX  99
SEDALIA        SUNNY     89  76  65 SW9       30.00F HX 100

$$
MOZ051-052-059>065-231600-
...EAST CENTRAL MISSOURI...

CITY           SKY/WX    TMP DP  RH WIND       PRES   REMARKS
ST LOUIS INTL  MOSUNNY   87  71  58 S5        30.01S HX  93

$$
MOZ072>076-082>087-097>100-106>115-231600-
...SOUTH CENTRAL AND SOUTHEAST MISSOURI...

CITY           SKY/WX    TMP DP  RH WIND       PRES   REMARKS
CAPE GIRARDEAU MOSUNNY   84  76  76 E6        29.99F HX  93
POPLAR BLUFF   SUNNY     86  74  67 CALM      29.99S HX  94
WEST PLAINS    SUNNY     88  76  67 CALM      30.05F HX  99

$$



USA.gov is the U.S. government's official web portal to all federal, state and local government web resources and services.